Time,TemperatureF,DewpointF,PressureIn,WindDirection,WindDirectionDegrees,WindSpeedMPH,WindSpeedGustMPH,Humidity,HourlyPrecipIn,Conditions,Clouds,dailyrainin,SoftwareType,DateUTC
2013-01-10 00:02:00,38.0,32.0,30.26,SE,126,0.0,0.0,78,0.00,,,0.00,,2013-01-10 06:02:00,
2013-01-10 00:12:00,38.0,32.0,30.26,SE,126,0.0,0.0,78,0.00,,,0.00,,2013-01-10 06:12:00,
2013-01-10 00:22:00,38.0,32.0,30.25,SE,126,0.0,0.0,78,0.00,,,0.00,,2013-01-10 06:22:00,
2013-01-10 00:32:00,38.0,32.0,30.24,SE,126,0.0,0.0,79,0.00,,,0.00,,2013-01-10 06:32:00,
2013-01-10 00:42:00,38.0,32.0,30.24,SE,126,0.0,0.0,79,0.00,,,0.00,,2013-01-10 06:42:00,
2013-01-10 00:52:00,38.0,32.0,30.23,SE,126,0.0,0.0,80,0.00,,,0.00,,2013-01-10 06:52:00,
2013-01-10 01:02:00,39.0,33.0,30.23,NE,47,0.0,2.0,80,0.00,,,0.00,,2013-01-10 07:02:00,
2013-01-10 01:12:00,39.0,33.0,30.23,NE,47,0.0,2.0,80,0.00,,,0.00,,2013-01-10 07:12:00,
2013-01-10 01:22:00,39.0,33.0,30.23,NE,47,0.0,2.0,80,0.00,,,0.00,,2013-01-10 07:22:00,
2013-01-10 01:32:00,40.0,33.0,30.22,ESE,103,0.0,0.0,76,0.00,,,0.00,,2013-01-10 07:32:00,
2013-01-10 01:42:00,40.0,33.0,30.22,ESE,103,0.0,0.0,76,0.00,,,0.00,,2013-01-10 07:42:00,
2013-01-10 01:52:00,41.0,34.0,30.21,ESE,104,0.0,0.0,75,0.00,,,0.00,,2013-01-10 07:52:00,
2013-01-10 02:02:00,41.0,34.0,30.21,ESE,103,0.0,0.0,75,0.00,,,0.00,,2013-01-10 08:02:00,
2013-01-10 02:12:00,41.0,34.0,30.21,ESE,103,0.0,0.0,75,0.00,,,0.00,,2013-01-10 08:12:00,
2013-01-10 02:22:00,40.0,33.0,30.20,ESE,104,0.0,0.0,77,0.00,,,0.00,,2013-01-10 08:22:00,
2013-01-10 02:32:00,39.0,33.0,30.19,ESE,104,0.0,0.0,78,0.00,,,0.00,,2013-01-10 08:32:00,
2013-01-10 02:42:00,39.0,33.0,30.19,ESE,104,0.0,0.0,78,0.00,,,0.00,,2013-01-10 08:42:00,
2013-01-10 02:52:00,39.0,33.0,30.18,ESE,104,0.0,0.0,79,0.00,,,0.00,,2013-01-10 08:52:00,
2013-01-10 03:02:00,39.0,34.0,30.17,ESE,103,0.0,0.0,81,0.00,,,0.00,,2013-01-10 09:02:00,
2013-01-10 03:12:00,39.0,34.0,30.17,ESE,103,0.0,0.0,81,0.00,,,0.00,,2013-01-10 09:12:00,
2013-01-10 03:22:00,39.0,34.0,30.16,ESE,104,0.0,0.0,82,0.00,,,0.00,,2013-01-10 09:22:00,
2013-01-10 03:32:00,38.0,34.0,30.16,ESE,104,0.0,0.0,84,0.01,,,0.01,,2013-01-10 09:32:00,
2013-01-10 03:42:00,38.0,34.0,30.16,ESE,104,0.0,0.0,84,0.01,,,0.01,,2013-01-10 09:42:00,
2013-01-10 03:52:00,38.0,34.0,30.15,ESE,103,0.0,0.0,85,0.01,,,0.01,,2013-01-10 09:52:00,
2013-01-10 04:03:00,38.0,34.0,30.14,ESE,104,0.0,0.0,86,0.02,,,0.02,,2013-01-10 10:03:00,
2013-01-10 04:12:00,38.0,34.0,30.14,ESE,104,0.0,0.0,86,0.02,,,0.02,,2013-01-10 10:12:00,
2013-01-10 04:22:00,40.0,36.0,30.13,SE,136,1.0,7.0,87,0.02,,,0.02,,2013-01-10 10:22:00,
2013-01-10 04:32:00,41.0,37.0,30.11,SSE,148,10.0,14.0,84,0.02,,,0.03,,2013-01-10 10:32:00,
2013-01-10 04:42:00,41.0,37.0,30.11,SSE,148,10.0,14.0,84,0.02,,,0.03,,2013-01-10 10:42:00,
2013-01-10 04:52:00,41.0,37.0,30.09,SE,125,5.0,15.0,85,0.04,,,0.05,,2013-01-10 10:52:00,
2013-01-10 05:02:00,40.0,36.0,30.08,SE,126,1.0,13.0,87,0.05,,,0.07,,2013-01-10 11:02:00,
2013-01-10 05:12:00,40.0,36.0,30.08,SE,126,1.0,13.0,87,0.05,,,0.07,,2013-01-10 11:12:00,
2013-01-10 05:22:00,40.0,37.0,30.07,ENE,60,1.0,12.0,89,0.06,,,0.08,,2013-01-10 11:22:00,
2013-01-10 05:32:00,40.0,37.0,30.06,SE,128,3.0,7.0,89,0.06,,,0.09,,2013-01-10 11:32:00,
2013-01-10 05:42:00,40.0,37.0,30.06,SE,128,3.0,7.0,89,0.06,,,0.09,,2013-01-10 11:42:00,
2013-01-10 05:52:00,40.0,37.0,30.04,SE,130,1.0,7.0,89,0.05,,,0.10,,2013-01-10 11:52:00,
2013-01-10 06:03:00,40.0,37.0,30.03,SE,124,1.0,12.0,89,0.06,,,0.13,,2013-01-10 12:03:00,
2013-01-10 06:12:00,40.0,37.0,30.03,SE,124,1.0,12.0,89,0.06,,,0.13,,2013-01-10 12:12:00,
2013-01-10 06:22:00,39.0,36.0,30.03,ESE,106,1.0,6.0,90,0.05,,,0.13,,2013-01-10 12:22:00,
2013-01-10 06:32:00,39.0,36.0,30.02,East,96,0.0,4.0,90,0.07,,,0.15,,2013-01-10 12:32:00,
2013-01-10 06:42:00,39.0,36.0,30.02,East,96,0.0,4.0,90,0.07,,,0.15,,2013-01-10 12:42:00,
2013-01-10 06:52:00,39.0,36.0,30.02,East,88,1.0,4.0,90,0.05,,,0.15,,2013-01-10 12:52:00,
2013-01-10 07:02:00,39.0,37.0,30.02,SE,126,2.0,11.0,91,0.03,,,0.16,,2013-01-10 13:02:00,
2013-01-10 07:12:00,39.0,37.0,30.02,SE,126,2.0,11.0,91,0.03,,,0.16,,2013-01-10 13:12:00,
2013-01-10 07:22:00,39.0,37.0,30.01,SE,142,1.0,11.0,91,0.03,,,0.16,,2013-01-10 13:22:00,
2013-01-10 07:32:00,39.0,37.0,30.01,ESE,123,7.0,14.0,91,0.01,,,0.16,,2013-01-10 13:32:00,
2013-01-10 07:42:00,39.0,37.0,30.01,ESE,123,7.0,14.0,91,0.01,,,0.16,,2013-01-10 13:42:00,
2013-01-10 07:52:00,39.0,37.0,29.99,ESE,119,3.0,8.0,91,0.04,,,0.19,,2013-01-10 13:52:00,
2013-01-10 08:02:00,39.0,37.0,30.02,SE,134,2.0,11.0,91,0.07,,,0.23,,2013-01-10 14:02:00,
2013-01-10 08:12:00,39.0,37.0,30.02,SE,134,2.0,11.0,91,0.07,,,0.23,,2013-01-10 14:12:00,
2013-01-10 08:22:00,39.0,37.0,30.02,ESE,121,2.0,5.0,91,0.11,,,0.27,,2013-01-10 14:22:00,
2013-01-10 08:33:00,39.0,37.0,30.01,SE,128,3.0,7.0,92,0.13,,,0.29,,2013-01-10 14:33:00,
2013-01-10 08:43:00,39.0,37.0,30.01,SE,128,3.0,7.0,92,0.13,,,0.29,,2013-01-10 14:43:00,
2013-01-10 08:53:00,39.0,37.0,30.01,SE,125,4.0,7.0,92,0.14,,,0.33,,2013-01-10 14:53:00,
2013-01-10 09:03:00,40.0,38.0,30.00,SE,135,4.0,8.0,92,0.14,,,0.37,,2013-01-10 15:03:00,
2013-01-10 09:12:00,40.0,38.0,30.00,SE,135,4.0,8.0,92,0.14,,,0.37,,2013-01-10 15:12:00,
2013-01-10 09:22:00,40.0,38.0,29.99,SE,125,5.0,9.0,92,0.14,,,0.41,,2013-01-10 15:22:00,
2013-01-10 09:33:00,40.0,38.0,29.98,SE,130,5.0,7.0,92,0.16,,,0.45,,2013-01-10 15:33:00,
2013-01-10 09:43:00,40.0,38.0,29.98,SE,130,5.0,7.0,92,0.16,,,0.45,,2013-01-10 15:43:00,
2013-01-10 09:53:00,40.0,38.0,29.99,SSE,148,5.0,11.0,92,0.15,,,0.48,,2013-01-10 15:53:00,
2013-01-10 10:02:00,40.0,38.0,29.98,SE,144,4.0,6.0,92,0.15,,,0.52,,2013-01-10 16:02:00,
2013-01-10 10:13:00,40.0,38.0,29.98,SE,144,4.0,6.0,92,0.15,,,0.52,,2013-01-10 16:13:00,
2013-01-10 10:23:00,40.0,38.0,29.98,SE,135,1.0,5.0,92,0.15,,,0.56,,2013-01-10 16:23:00,
2013-01-10 10:33:00,41.0,39.0,29.97,SE,134,1.0,3.0,92,0.14,,,0.59,,2013-01-10 16:33:00,
2013-01-10 10:43:00,41.0,39.0,29.97,SE,134,1.0,3.0,92,0.14,,,0.59,,2013-01-10 16:43:00,
2013-01-10 10:52:00,41.0,39.0,29.96,SSE,154,4.0,6.0,93,0.12,,,0.59,,2013-01-10 16:52:00,
2013-01-10 11:03:00,42.0,40.0,29.95,SE,145,2.0,7.0,93,0.07,,,0.59,,2013-01-10 17:03:00,
2013-01-10 11:12:00,42.0,40.0,29.95,SE,145,2.0,7.0,93,0.07,,,0.59,,2013-01-10 17:12:00,
2013-01-10 11:22:00,42.0,40.0,29.93,SSE,161,4.0,7.0,93,0.04,,,0.60,,2013-01-10 17:22:00,
2013-01-10 11:33:00,42.0,40.0,29.92,SSE,147,6.0,10.0,93,0.01,,,0.60,,2013-01-10 17:33:00,
2013-01-10 11:42:00,42.0,40.0,29.92,SSE,147,6.0,10.0,93,0.01,,,0.60,,2013-01-10 17:42:00,
2013-01-10 11:53:00,43.0,41.0,29.91,SE,146,6.0,10.0,93,0.01,,,0.60,,2013-01-10 17:53:00,
2013-01-10 12:03:00,43.0,41.0,29.90,SSE,151,5.0,9.0,93,0.01,,,0.60,,2013-01-10 18:03:00,
2013-01-10 12:12:00,43.0,41.0,29.89,SSE,165,7.0,11.0,93,0.00,,,0.60,,2013-01-10 18:12:00,
2013-01-10 12:23:00,43.0,41.0,29.89,SSE,165,7.0,11.0,93,0.00,,,0.60,,2013-01-10 18:23:00,
2013-01-10 12:33:00,43.0,41.0,29.88,SSE,147,6.0,10.0,93,0.00,,,0.60,,2013-01-10 18:33:00,
2013-01-10 12:43:00,43.0,41.0,29.86,SE,137,9.0,12.0,93,0.00,,,0.60,,2013-01-10 18:43:00,
2013-01-10 12:52:00,43.0,41.0,29.86,SE,137,9.0,12.0,93,0.00,,,0.60,,2013-01-10 18:52:00,
2013-01-10 13:03:00,43.0,41.0,29.85,SSE,156,7.0,11.0,93,0.00,,,0.60,,2013-01-10 19:03:00,
2013-01-10 13:13:00,44.0,42.0,29.84,SSE,156,9.0,10.0,93,0.00,,,0.60,,2013-01-10 19:13:00,
2013-01-10 13:23:00,44.0,42.0,29.84,SSE,156,9.0,10.0,93,0.00,,,0.60,,2013-01-10 19:23:00,
2013-01-10 13:33:00,44.0,42.0,29.84,South,181,6.0,10.0,93,0.00,,,0.60,,2013-01-10 19:33:00,
2013-01-10 13:43:00,44.0,42.0,29.84,South,181,6.0,10.0,93,0.00,,,0.60,,2013-01-10 19:43:00,
2013-01-10 13:52:00,44.0,42.0,29.84,South,175,4.0,10.0,92,0.00,,,0.60,,2013-01-10 19:52:00,
2013-01-10 14:03:00,44.0,42.0,29.83,South,175,2.0,5.0,92,0.00,,,0.60,,2013-01-10 20:03:00,
2013-01-10 14:12:00,44.0,42.0,29.82,South,177,0.0,3.0,93,0.00,,,0.60,,2013-01-10 20:12:00,
2013-01-10 14:23:00,44.0,42.0,29.82,South,177,0.0,3.0,93,0.00,,,0.60,,2013-01-10 20:23:00,
2013-01-10 14:33:00,44.0,42.0,29.84,South,176,3.0,6.0,93,0.00,,,0.60,,2013-01-10 20:33:00,
2013-01-10 14:43:00,44.0,42.0,29.84,South,176,3.0,6.0,93,0.00,,,0.60,,2013-01-10 20:43:00,
2013-01-10 14:53:00,44.0,42.0,29.83,South,191,3.0,7.0,93,0.00,,,0.60,,2013-01-10 20:53:00,
2013-01-10 15:03:00,45.0,43.0,29.82,South,191,1.0,4.0,93,0.00,,,0.60,,2013-01-10 21:03:00,
2013-01-10 15:12:00,45.0,43.0,29.81,South,190,1.0,5.0,93,0.00,,,0.60,,2013-01-10 21:12:00,
2013-01-10 15:23:00,45.0,43.0,29.81,South,190,1.0,5.0,93,0.00,,,0.60,,2013-01-10 21:23:00,
2013-01-10 15:33:00,45.0,43.0,29.79,South,175,0.0,6.0,93,0.00,,,0.60,,2013-01-10 21:33:00,
2013-01-10 15:42:00,45.0,43.0,29.79,South,175,0.0,6.0,93,0.00,,,0.60,,2013-01-10 21:42:00,
2013-01-10 15:53:00,45.0,43.0,29.78,South,175,2.0,4.0,93,0.00,,,0.60,,2013-01-10 21:53:00,
2013-01-10 16:03:00,45.0,43.0,29.78,South,175,0.0,0.0,93,0.00,,,0.60,,2013-01-10 22:03:00,
2013-01-10 16:12:00,45.0,43.0,29.77,South,175,0.0,0.0,93,0.00,,,0.60,,2013-01-10 22:12:00,
2013-01-10 16:25:00,45.0,43.0,29.77,South,175,0.0,0.0,93,0.00,,,0.60,,2013-01-10 22:25:00,
2013-01-10 16:33:00,45.0,43.0,29.77,South,175,0.0,3.0,93,0.00,,,0.60,,2013-01-10 22:33:00,
2013-01-10 16:43:00,45.0,43.0,29.77,South,175,0.0,3.0,93,0.00,,,0.60,,2013-01-10 22:43:00,
2013-01-10 17:02:00,45.0,43.0,29.77,South,175,0.0,0.0,93,0.00,,,0.60,,2013-01-10 23:02:00,
2013-01-10 17:12:00,45.0,43.0,29.77,South,175,0.0,1.0,93,0.00,,,0.60,,2013-01-10 23:12:00,
2013-01-10 17:23:00,45.0,43.0,29.77,South,175,0.0,1.0,93,0.00,,,0.60,,2013-01-10 23:23:00,
2013-01-10 17:33:00,45.0,43.0,29.78,South,172,4.0,6.0,93,0.00,,,0.60,,2013-01-10 23:33:00,
2013-01-10 17:43:00,45.0,43.0,29.78,South,172,4.0,6.0,93,0.00,,,0.60,,2013-01-10 23:43:00,
2013-01-10 17:53:00,45.0,43.0,29.78,South,178,5.0,9.0,93,0.00,,,0.60,,2013-01-10 23:53:00,
2013-01-10 18:02:00,45.0,43.0,29.76,South,169,5.0,7.0,93,0.00,,,0.60,,2013-01-11 00:02:00,
2013-01-10 18:12:00,45.0,43.0,29.77,South,180,2.0,6.0,93,0.00,,,0.60,,2013-01-11 00:12:00,
2013-01-10 18:23:00,45.0,43.0,29.77,South,180,2.0,6.0,93,0.00,,,0.60,,2013-01-11 00:23:00,
2013-01-10 18:33:00,45.0,43.0,29.77,South,180,0.0,0.0,93,0.00,,,0.60,,2013-01-11 00:33:00,
2013-01-10 18:42:00,45.0,43.0,29.77,South,180,0.0,0.0,93,0.00,,,0.60,,2013-01-11 00:42:00,
2013-01-10 18:52:00,45.0,43.0,29.77,South,180,0.0,0.0,93,0.00,,,0.60,,2013-01-11 00:52:00,
2013-01-10 19:03:00,45.0,43.0,29.76,South,179,0.0,0.0,93,0.00,,,0.60,,2013-01-11 01:03:00,
2013-01-10 19:13:00,45.0,43.0,29.77,South,180,0.0,0.0,93,0.00,,,0.60,,2013-01-11 01:13:00,
2013-01-10 19:23:00,45.0,43.0,29.77,South,180,0.0,0.0,93,0.00,,,0.60,,2013-01-11 01:23:00,
2013-01-10 19:33:00,45.0,43.0,29.76,South,188,0.0,1.0,93,0.00,,,0.60,,2013-01-11 01:33:00,
2013-01-10 19:43:00,45.0,43.0,29.76,South,188,0.0,1.0,93,0.00,,,0.60,,2013-01-11 01:43:00,
2013-01-10 19:52:00,45.0,43.0,29.76,South,188,0.0,0.0,94,0.01,,,0.61,,2013-01-11 01:52:00,
2013-01-10 20:03:00,45.0,43.0,29.76,South,188,0.0,0.0,94,0.01,,,0.61,,2013-01-11 02:03:00,
2013-01-10 20:13:00,45.0,43.0,29.76,South,188,0.0,0.0,94,0.01,,,0.61,,2013-01-11 02:13:00,
2013-01-10 20:23:00,45.0,43.0,29.75,South,188,0.0,0.0,94,0.01,,,0.61,,2013-01-11 02:23:00,
2013-01-10 20:33:00,45.0,43.0,29.75,South,187,0.0,0.0,94,0.01,,,0.61,,2013-01-11 02:33:00,
2013-01-10 20:43:00,45.0,43.0,29.75,South,187,0.0,0.0,94,0.01,,,0.61,,2013-01-11 02:43:00,
2013-01-10 20:53:00,45.0,43.0,29.74,South,188,0.0,0.0,94,0.00,,,0.61,,2013-01-11 02:53:00,
2013-01-10 21:02:00,45.0,43.0,29.75,South,188,0.0,1.0,94,0.00,,,0.61,,2013-01-11 03:02:00,
2013-01-10 21:12:00,45.0,43.0,29.74,South,187,1.0,4.0,94,0.00,,,0.61,,2013-01-11 03:12:00,
2013-01-10 21:23:00,45.0,43.0,29.74,South,187,1.0,4.0,94,0.00,,,0.61,,2013-01-11 03:23:00,
2013-01-10 21:33:00,45.0,43.0,29.73,South,187,2.0,3.0,94,0.00,,,0.61,,2013-01-11 03:33:00,
2013-01-10 21:43:00,45.0,43.0,29.73,South,187,2.0,3.0,94,0.00,,,0.61,,2013-01-11 03:43:00,
2013-01-10 21:52:00,45.0,43.0,29.72,South,187,3.0,4.0,94,0.00,,,0.61,,2013-01-11 03:52:00,
2013-01-10 22:02:00,45.0,43.0,29.72,South,175,4.0,6.0,94,0.00,,,0.61,,2013-01-11 04:02:00,
2013-01-10 22:12:00,45.0,43.0,29.72,South,175,4.0,6.0,94,0.00,,,0.61,,2013-01-11 04:12:00,
2013-01-10 22:22:00,45.0,43.0,29.71,South,175,0.0,5.0,94,0.00,,,0.61,,2013-01-11 04:22:00,
2013-01-10 22:33:00,45.0,43.0,29.70,South,180,2.0,5.0,94,0.00,,,0.61,,2013-01-11 04:33:00,
2013-01-10 22:42:00,45.0,43.0,29.70,South,180,2.0,5.0,94,0.00,,,0.61,,2013-01-11 04:42:00,
2013-01-10 22:52:00,45.0,43.0,29.69,South,175,1.0,4.0,94,0.00,,,0.61,,2013-01-11 04:52:00,
2013-01-10 23:03:00,44.0,42.0,29.69,SSE,166,10.0,12.0,94,0.00,,,0.61,,2013-01-11 05:03:00,
2013-01-10 23:13:00,44.0,42.0,29.69,SSE,166,10.0,12.0,94,0.00,,,0.61,,2013-01-11 05:13:00,
2013-01-10 23:22:00,45.0,43.0,29.67,SSE,161,9.0,13.0,94,0.00,,,0.61,,2013-01-11 05:22:00,
2013-01-10 23:33:00,45.0,43.0,29.68,SSE,167,7.0,14.0,94,0.00,,,0.61,,2013-01-11 05:33:00,
2013-01-10 23:42:00,45.0,43.0,29.68,SSE,167,7.0,14.0,94,0.00,,,0.61,,2013-01-11 05:42:00,
2013-01-10 23:52:00,44.0,42.0,29.68,South,173,11.0,14.0,94,0.00,,,0.61,,2013-01-11 05:52:00,